Time,TemperatureF,DewpointF,PressureIn,WindDirection,WindDirectionDegrees,WindSpeedMPH,WindSpeedGustMPH,Humidity,HourlyPrecipIn,Conditions,Clouds,dailyrainin,SoftwareType,DateUTC
2013-07-13 00:00:00,73.5,72.0,29.89,NW,312,0.0,1.0,96,0.00,,,0.00,weatherlink.com 1.10,2013-07-13 05:00:00,
2013-07-13 00:15:00,73.3,72.0,29.89,NW,307,0.0,1.0,96,0.00,,,0.00,weatherlink.com 1.10,2013-07-13 05:15:00,
2013-07-13 00:30:00,73.2,72.0,29.88,WNW,288,0.0,1.0,97,0.00,,,0.00,weatherlink.com 1.10,2013-07-13 05:30:00,
2013-07-13 00:46:00,73.1,72.0,29.88,WNW,288,0.0,1.0,97,0.00,,,0.00,weatherlink.com 1.10,2013-07-13 05:46:00,
2013-07-13 01:01:00,73.1,72.0,29.89,SSW,204,0.0,1.0,97,0.00,,,0.00,weatherlink.com 1.10,2013-07-13 06:01:00,
2013-07-13 01:16:00,73.0,72.0,29.89,South,176,0.0,0.0,97,0.00,,,0.00,weatherlink.com 1.10,2013-07-13 06:16:00,
2013-07-13 01:31:00,72.9,72.0,29.90,East,82,0.0,1.0,98,0.00,,,0.00,weatherlink.com 1.10,2013-07-13 06:31:00,
2013-07-13 01:46:00,72.7,72.0,29.89,East,92,0.0,0.0,97,0.00,,,0.00,weatherlink.com 1.10,2013-07-13 06:46:00,
2013-07-13 02:01:00,72.6,72.0,29.90,East,93,0.0,1.0,98,0.00,,,0.00,weatherlink.com 1.10,2013-07-13 07:01:00,
2013-07-13 02:16:00,72.4,72.0,29.90,East,91,0.0,0.0,98,0.00,,,0.00,weatherlink.com 1.10,2013-07-13 07:16:00,
2013-07-13 02:31:00,72.2,72.0,29.90,East,91,0.0,0.0,98,0.00,,,0.00,weatherlink.com 1.10,2013-07-13 07:31:00,
2013-07-13 02:46:00,72.2,72.0,29.90,ESE,105,0.0,0.0,98,0.00,,,0.00,weatherlink.com 1.10,2013-07-13 07:46:00,
2013-07-13 03:01:00,71.9,71.0,29.90,ESE,105,0.0,0.0,98,0.00,,,0.00,weatherlink.com 1.10,2013-07-13 08:01:00,
2013-07-13 03:16:00,71.8,71.0,29.89,ESE,103,0.0,0.0,98,0.00,,,0.00,weatherlink.com 1.10,2013-07-13 08:16:00,
2013-07-13 03:31:00,71.7,71.0,29.89,ESE,103,0.0,0.0,98,0.00,,,0.00,weatherlink.com 1.10,2013-07-13 08:31:00,
2013-07-13 03:46:00,71.6,71.0,29.89,ESE,103,0.0,0.0,98,0.00,,,0.00,weatherlink.com 1.10,2013-07-13 08:46:00,
2013-07-13 04:01:00,71.4,71.0,29.88,ESE,103,0.0,0.0,98,0.00,,,0.00,weatherlink.com 1.10,2013-07-13 09:01:00,
2013-07-13 04:16:00,71.3,71.0,29.88,ESE,103,0.0,0.0,98,0.00,,,0.00,weatherlink.com 1.10,2013-07-13 09:16:00,
2013-07-13 04:31:00,71.1,71.0,29.88,ESE,103,0.0,0.0,98,0.00,,,0.00,weatherlink.com 1.10,2013-07-13 09:31:00,
2013-07-13 04:46:00,71.0,70.0,29.87,ESE,103,0.0,0.0,98,0.00,,,0.00,weatherlink.com 1.10,2013-07-13 09:46:00,
2013-07-13 05:01:00,70.9,71.0,29.87,ESE,105,0.0,0.0,99,0.00,,,0.00,weatherlink.com 1.10,2013-07-13 10:01:00,
2013-07-13 05:16:00,70.8,71.0,29.88,ESE,105,0.0,0.0,99,0.00,,,0.00,weatherlink.com 1.10,2013-07-13 10:16:00,
2013-07-13 05:31:00,70.6,70.0,29.88,ESE,103,0.0,0.0,99,0.00,,,0.00,weatherlink.com 1.10,2013-07-13 10:31:00,
2013-07-13 05:46:00,70.7,70.0,29.89,ENE,70,2.0,2.0,99,0.00,,,0.00,weatherlink.com 1.10,2013-07-13 10:46:00,
2013-07-13 06:01:00,71.1,71.0,29.89,East,82,1.0,3.0,99,0.00,,,0.00,weatherlink.com 1.10,2013-07-13 11:01:00,
2013-07-13 06:16:00,71.2,71.0,29.90,East,82,2.0,2.0,99,0.00,,,0.00,weatherlink.com 1.10,2013-07-13 11:16:00,
2013-07-13 06:31:00,71.4,71.0,29.90,East,86,1.0,3.0,99,0.00,,,0.00,weatherlink.com 1.10,2013-07-13 11:31:00,
2013-07-13 06:46:00,71.6,71.0,29.90,ENE,64,0.0,3.0,99,0.00,,,0.00,weatherlink.com 1.10,2013-07-13 11:46:00,
2013-07-13 07:01:00,71.8,72.0,29.90,East,96,1.0,2.0,99,0.00,,,0.00,weatherlink.com 1.10,2013-07-13 12:01:00,
2013-07-13 07:16:00,72.1,72.0,29.91,East,101,1.0,1.0,99,0.00,,,0.00,weatherlink.com 1.10,2013-07-13 12:16:00,
2013-07-13 07:31:00,72.6,72.0,29.91,SSE,160,0.0,1.0,99,0.00,,,0.00,weatherlink.com 1.10,2013-07-13 12:31:00,
2013-07-13 07:46:00,73.1,73.0,29.91,ENE,74,0.0,2.0,99,0.00,,,0.00,weatherlink.com 1.10,2013-07-13 12:46:00,
2013-07-13 08:01:00,74.9,74.0,29.92,ESE,106,3.0,3.0,97,0.00,,,0.00,weatherlink.com 1.10,2013-07-13 13:01:00,
2013-07-13 08:16:00,76.4,74.0,29.92,ESE,110,2.0,4.0,91,0.00,,,0.00,weatherlink.com 1.10,2013-07-13 13:16:00,
2013-07-13 08:31:00,76.8,74.0,29.93,East,79,1.0,2.0,90,0.00,,,0.00,weatherlink.com 1.10,2013-07-13 13:31:00,
2013-07-13 08:46:00,78.0,74.0,29.93,East,98,0.0,1.0,88,0.00,,,0.00,weatherlink.com 1.10,2013-07-13 13:46:00,
2013-07-13 09:01:00,79.6,75.0,29.93,SE,142,1.0,3.0,85,0.00,,,0.00,weatherlink.com 1.10,2013-07-13 14:01:00,
2013-07-13 09:16:00,79.8,75.0,29.93,West,264,0.0,2.0,85,0.00,,,0.00,weatherlink.com 1.10,2013-07-13 14:16:00,
2013-07-13 09:31:00,80.2,75.0,29.94,East,96,1.0,3.0,85,0.00,,,0.00,weatherlink.com 1.10,2013-07-13 14:31:00,
2013-07-13 09:46:00,80.5,76.0,29.94,SW,216,0.0,3.0,85,0.00,,,0.00,weatherlink.com 1.10,2013-07-13 14:46:00,
2013-07-13 10:01:00,80.3,76.0,29.95,ENE,75,1.0,3.0,85,0.00,,,0.00,weatherlink.com 1.10,2013-07-13 15:01:00,
2013-07-13 10:16:00,80.3,75.0,29.95,SE,130,2.0,5.0,84,0.00,,,0.00,weatherlink.com 1.10,2013-07-13 15:16:00,
2013-07-13 10:32:00,79.7,75.0,29.95,ENE,76,1.0,6.0,85,0.00,,,0.00,weatherlink.com 1.10,2013-07-13 15:32:00,
2013-07-13 10:47:00,80.8,76.0,29.95,East,89,4.0,6.0,84,0.00,,,0.00,weatherlink.com 1.10,2013-07-13 15:47:00,
2013-07-13 11:02:00,81.9,76.0,29.95,ESE,108,3.0,5.0,81,0.00,,,0.00,weatherlink.com 1.10,2013-07-13 16:02:00,
2013-07-13 11:17:00,84.2,76.0,29.95,SSE,154,4.0,7.0,77,0.00,,,0.00,weatherlink.com 1.10,2013-07-13 16:17:00,
2013-07-13 11:32:00,83.5,75.0,29.95,East,93,2.0,6.0,76,0.00,,,0.00,weatherlink.com 1.10,2013-07-13 16:32:00,
2013-07-13 11:47:00,83.2,75.0,29.95,ESE,114,2.0,2.0,77,0.00,,,0.00,weatherlink.com 1.10,2013-07-13 16:47:00,
2013-07-13 12:02:00,83.0,75.0,29.95,East,81,2.0,3.0,77,0.00,,,0.00,weatherlink.com 1.10,2013-07-13 17:02:00,
2013-07-13 12:17:00,82.7,76.0,29.94,ESE,123,1.0,5.0,79,0.00,,,0.00,weatherlink.com 1.10,2013-07-13 17:17:00,
2013-07-13 12:32:00,83.1,76.0,29.94,ESE,119,2.0,4.0,78,0.00,,,0.00,weatherlink.com 1.10,2013-07-13 17:32:00,
2013-07-13 12:47:00,83.3,75.0,29.93,East,90,0.0,2.0,76,0.00,,,0.00,weatherlink.com 1.10,2013-07-13 17:47:00,
2013-07-13 13:02:00,83.0,76.0,29.94,SE,125,0.0,2.0,79,0.00,,,0.00,weatherlink.com 1.10,2013-07-13 18:02:00,
2013-07-13 13:17:00,82.7,77.0,29.94,ESE,102,0.0,1.0,83,0.00,,,0.00,weatherlink.com 1.10,2013-07-13 18:17:00,
2013-07-13 13:32:00,81.7,77.0,29.93,ESE,102,0.0,1.0,86,0.00,,,0.00,weatherlink.com 1.10,2013-07-13 18:32:00,
2013-07-13 13:47:00,82.2,78.0,29.93,ESE,105,0.0,0.0,87,0.00,,,0.00,weatherlink.com 1.10,2013-07-13 18:47:00,
2013-07-13 14:02:00,81.6,76.0,29.92,ENE,72,1.0,2.0,84,0.00,,,0.00,weatherlink.com 1.10,2013-07-13 19:02:00,
2013-07-13 14:17:00,82.0,77.0,29.92,SE,135,1.0,2.0,85,0.00,,,0.00,weatherlink.com 1.10,2013-07-13 19:17:00,
2013-07-13 14:32:00,82.1,77.0,29.92,ESE,122,0.0,3.0,85,0.00,,,0.00,weatherlink.com 1.10,2013-07-13 19:32:00,
2013-07-13 14:47:00,82.7,78.0,29.92,WSW,253,1.0,1.0,84,0.00,,,0.00,weatherlink.com 1.10,2013-07-13 19:47:00,
2013-07-13 15:02:00,83.5,78.0,29.92,WNW,295,0.0,1.0,83,0.00,,,0.00,weatherlink.com 1.10,2013-07-13 20:02:00,
2013-07-13 15:17:00,83.0,76.0,29.92,East,84,2.0,3.0,80,0.00,,,0.00,weatherlink.com 1.10,2013-07-13 20:17:00,
2013-07-13 15:32:00,83.6,76.0,29.92,ENE,60,0.0,3.0,77,0.00,,,0.00,weatherlink.com 1.10,2013-07-13 20:32:00,
2013-07-13 15:47:00,84.5,77.0,29.92,SE,124,2.0,6.0,77,0.00,,,0.00,weatherlink.com 1.10,2013-07-13 20:47:00,
2013-07-13 16:02:00,85.1,77.0,29.91,SSW,204,0.0,6.0,76,0.00,,,0.00,weatherlink.com 1.10,2013-07-13 21:02:00,
2013-07-13 16:17:00,85.6,74.0,29.90,WSW,238,3.0,6.0,69,0.00,,,0.00,weatherlink.com 1.10,2013-07-13 21:17:00,
2013-07-13 16:32:00,86.1,75.0,29.90,East,100,0.0,5.0,70,0.00,,,0.00,weatherlink.com 1.10,2013-07-13 21:32:00,
2013-07-13 16:47:00,85.8,75.0,29.90,ENE,68,0.0,3.0,70,0.00,,,0.00,weatherlink.com 1.10,2013-07-13 21:47:00,
2013-07-13 17:02:00,84.0,75.0,29.89,NNW,330,0.0,4.0,73,0.00,,,0.00,weatherlink.com 1.10,2013-07-13 22:02:00,
2013-07-13 17:17:00,82.0,74.0,29.90,West,267,0.0,3.0,77,0.00,,,0.00,weatherlink.com 1.10,2013-07-13 22:17:00,
2013-07-13 17:32:00,82.2,75.0,29.90,SE,127,0.0,1.0,79,0.00,,,0.00,weatherlink.com 1.10,2013-07-13 22:32:00,
2013-07-13 17:47:00,84.7,75.0,29.91,SW,233,0.0,1.0,72,0.00,,,0.00,weatherlink.com 1.10,2013-07-13 22:47:00,
2013-07-13 18:02:00,86.1,75.0,29.92,West,269,1.0,3.0,69,0.00,,,0.00,weatherlink.com 1.10,2013-07-13 23:02:00,
2013-07-13 18:17:00,79.9,70.0,29.94,North,9,4.0,10.0,71,0.00,,,0.00,weatherlink.com 1.10,2013-07-13 23:17:00,
2013-07-13 18:32:00,76.1,68.0,29.93,NE,53,0.0,6.0,75,0.00,,,0.00,weatherlink.com 1.10,2013-07-13 23:32:00,
2013-07-13 18:47:00,74.3,67.0,29.93,East,90,4.0,6.0,79,0.00,,,0.00,weatherlink.com 1.10,2013-07-13 23:47:00,
2013-07-13 19:02:00,72.9,68.0,29.91,East,92,3.0,9.0,83,0.00,,,0.00,weatherlink.com 1.10,2013-07-14 00:02:00,
2013-07-13 19:17:00,73.3,68.0,29.91,East,86,3.0,6.0,83,0.00,,,0.00,weatherlink.com 1.10,2013-07-14 00:17:00,
2013-07-13 19:32:00,73.5,68.0,29.90,East,85,3.0,10.0,84,0.00,,,0.00,weatherlink.com 1.10,2013-07-14 00:32:00,
2013-07-13 19:48:00,73.3,69.0,29.91,ESE,103,0.0,4.0,85,0.00,,,0.00,weatherlink.com 1.10,2013-07-14 00:48:00,
2013-07-13 20:03:00,72.8,68.0,29.93,WNW,290,1.0,3.0,86,0.00,,,0.00,weatherlink.com 1.10,2013-07-14 01:03:00,
2013-07-13 20:18:00,72.4,68.0,29.95,East,89,1.0,3.0,87,0.00,,,0.00,weatherlink.com 1.10,2013-07-14 01:18:00,
2013-07-13 20:33:00,72.2,68.0,29.96,South,173,0.0,4.0,87,0.00,,,0.00,weatherlink.com 1.10,2013-07-14 01:33:00,
2013-07-13 20:48:00,72.4,69.0,29.97,ESE,115,0.0,3.0,88,0.00,,,0.00,weatherlink.com 1.10,2013-07-14 01:48:00,
2013-07-13 21:03:00,72.3,69.0,29.98,West,262,0.0,4.0,88,0.00,,,0.00,weatherlink.com 1.10,2013-07-14 02:03:00,
2013-07-13 21:18:00,72.0,69.0,29.98,SE,146,0.0,1.0,89,0.00,,,0.00,weatherlink.com 1.10,2013-07-14 02:18:00,
2013-07-13 21:33:00,71.6,69.0,29.98,NE,36,0.0,1.0,90,0.00,,,0.00,weatherlink.com 1.10,2013-07-14 02:33:00,
2013-07-13 21:48:00,71.2,69.0,29.99,East,80,0.0,3.0,92,0.00,,,0.00,weatherlink.com 1.10,2013-07-14 02:48:00,
2013-07-13 22:03:00,71.2,69.0,29.99,East,81,1.0,5.0,91,0.00,,,0.00,weatherlink.com 1.10,2013-07-14 03:03:00,
2013-07-13 22:18:00,71.1,68.0,29.99,East,84,0.0,1.0,89,0.00,,,0.00,weatherlink.com 1.10,2013-07-14 03:18:00,
2013-07-13 22:33:00,70.9,68.0,29.99,ENE,66,2.0,3.0,89,0.00,,,0.00,weatherlink.com 1.10,2013-07-14 03:33:00,
2013-07-13 22:48:00,70.6,67.0,29.99,ESE,107,0.0,3.0,89,0.00,,,0.00,weatherlink.com 1.10,2013-07-14 03:48:00,
2013-07-13 23:03:00,70.2,67.0,29.98,East,94,1.0,3.0,89,0.00,,,0.00,weatherlink.com 1.10,2013-07-14 04:03:00,
2013-07-13 23:18:00,70.0,66.0,29.97,East,92,0.0,2.0,88,0.00,,,0.00,weatherlink.com 1.10,2013-07-14 04:18:00,
2013-07-13 23:33:00,69.7,66.0,29.96,ESE,108,1.0,1.0,89,0.00,,,0.00,weatherlink.com 1.10,2013-07-14 04:33:00,
2013-07-13 23:48:00,69.2,67.0,29.96,WNW,290,0.0,2.0,91,0.00,,,0.00,weatherlink.com 1.10,2013-07-14 04:48:00,